TimeEST,TemperatureF,Dew PointF,Humidity,Sea Level PressureIn,VisibilityMPH,Wind Direction,Wind SpeedMPH,Gust SpeedMPH,PrecipitationIn,Events,Conditions,WindDirDegrees,DateUTC
12:03 AM,33.8,17.6,52,30.26,10.0,NNW,4.6,-,N/A,,Clear,330,2006-01-26 05:03:00
12:23 AM,33.8,17.6,52,30.26,10.0,NNW,8.1,-,N/A,,Clear,340,2006-01-26 05:23:00
1:03 AM,33.8,17.6,52,30.27,10.0,NW,3.5,-,N/A,,Clear,320,2006-01-26 06:03:00
1:23 AM,32.0,17.6,55,30.27,10.0,South,3.5,-,N/A,,Clear,170,2006-01-26 06:23:00
1:43 AM,32.0,17.6,55,30.27,10.0,Calm,Calm,-,N/A,,Clear,0,2006-01-26 06:43:00
2:03 AM,32.0,17.6,55,30.27,10.0,Calm,Calm,-,N/A,,Clear,0,2006-01-26 07:03:00
3:03 AM,30.2,19.4,64,30.27,10.0,Calm,Calm,-,N/A,,Clear,0,2006-01-26 08:03:00
3:23 AM,30.2,17.6,60,30.27,10.0,Calm,Calm,-,N/A,,Clear,0,2006-01-26 08:23:00
3:43 AM,30.2,19.4,64,30.27,10.0,Calm,Calm,-,N/A,,Clear,0,2006-01-26 08:43:00
4:03 AM,28.4,19.4,69,30.27,10.0,SW,3.5,-,N/A,,Clear,230,2006-01-26 09:03:00
5:03 AM,28.4,19.4,69,30.27,10.0,Calm,Calm,-,N/A,,Clear,0,2006-01-26 10:03:00
5:23 AM,26.6,19.4,74,30.27,10.0,West,3.5,-,N/A,,Clear,270,2006-01-26 10:23:00
6:03 AM,28.4,19.4,69,30.28,10.0,WSW,3.5,-,N/A,,Clear,250,2006-01-26 11:03:00
6:23 AM,24.8,19.4,80,30.29,10.0,Calm,Calm,-,N/A,,Clear,0,2006-01-26 11:23:00
6:43 AM,26.6,21.2,80,30.30,10.0,ESE,4.6,-,N/A,,Clear,120,2006-01-26 11:43:00
7:03 AM,28.4,19.4,69,30.31,10.0,Calm,Calm,-,N/A,,Clear,0,2006-01-26 12:03:00
7:23 AM,28.4,19.4,69,30.31,10.0,Calm,Calm,-,N/A,,Clear,0,2006-01-26 12:23:00
7:44 AM,26.6,19.4,74,30.32,10.0,Calm,Calm,-,N/A,,Clear,0,2006-01-26 12:44:00
8:04 AM,28.4,19.4,69,30.33,10.0,Calm,Calm,-,N/A,,Clear,0,2006-01-26 13:04:00
8:23 AM,26.6,21.2,80,30.34,10.0,NNE,3.5,-,N/A,,Clear,30,2006-01-26 13:23:00
9:04 AM,32.0,23.0,69,30.36,10.0,Calm,Calm,-,N/A,,Clear,0,2006-01-26 14:04:00
10:03 AM,35.6,21.2,56,30.39,10.0,NW,5.8,-,N/A,,Clear,310,2006-01-26 15:03:00
10:23 AM,39.2,21.2,49,30.40,10.0,NW,9.2,-,N/A,,Clear,320,2006-01-26 15:23:00
10:44 AM,41.0,19.4,42,30.40,10.0,NW,6.9,-,N/A,,Clear,320,2006-01-26 15:44:00
11:03 AM,41.0,19.4,42,30.40,10.0,North,5.8,-,N/A,,Clear,360,2006-01-26 16:03:00
11:24 AM,42.8,19.4,39,30.40,10.0,North,3.5,-,N/A,,Clear,360,2006-01-26 16:24:00
12:03 PM,44.6,17.6,34,30.40,10.0,NNW,6.9,-,N/A,,Clear,340,2006-01-26 17:03:00
12:24 PM,46.4,17.6,32,30.40,10.0,North,9.2,16.1,N/A,,Clear,350,2006-01-26 17:24:00
12:43 PM,46.4,17.6,32,30.39,10.0,WNW,9.2,-,N/A,,Clear,300,2006-01-26 17:43:00
1:03 PM,46.4,17.6,32,30.39,10.0,NNE,4.6,-,N/A,,Clear,20,2006-01-26 18:03:00
1:23 PM,46.4,17.6,32,30.38,10.0,North,4.6,-,N/A,,Clear,10,2006-01-26 18:23:00
1:44 PM,48.2,17.6,30,30.38,10.0,North,3.5,-,N/A,,Clear,360,2006-01-26 18:44:00
2:04 PM,48.2,17.6,30,30.37,10.0,NE,4.6,-,N/A,,Clear,40,2006-01-26 19:04:00
2:23 PM,48.2,17.6,30,30.38,10.0,North,3.5,-,N/A,,Clear,350,2006-01-26 19:23:00
2:43 PM,50.0,19.4,30,30.38,10.0,NNE,6.9,-,N/A,,Clear,20,2006-01-26 19:43:00
3:04 PM,50.0,17.6,28,30.38,10.0,Calm,Calm,-,N/A,,Clear,0,2006-01-26 20:04:00
3:23 PM,50.0,19.4,30,30.38,10.0,North,6.9,-,N/A,,Clear,350,2006-01-26 20:23:00
3:44 PM,50.0,17.6,28,30.38,10.0,NW,6.9,-,N/A,,Clear,310,2006-01-26 20:44:00
4:04 PM,50.0,17.6,28,30.38,10.0,NNW,5.8,-,N/A,,Clear,340,2006-01-26 21:04:00
4:23 PM,51.8,19.4,28,30.39,10.0,NNW,3.5,-,N/A,,Clear,340,2006-01-26 21:23:00
5:24 PM,50.0,17.6,28,30.41,10.0,NW,6.9,-,N/A,,Clear,320,2006-01-26 22:24:00
6:03 PM,44.6,19.4,37,30.42,10.0,NNW,6.9,-,N/A,,Clear,340,2006-01-26 23:03:00
6:23 PM,44.6,19.4,37,30.44,10.0,NNW,5.8,-,N/A,,Clear,330,2006-01-26 23:23:00
7:03 PM,42.8,19.4,39,30.45,10.0,NNW,6.9,-,N/A,,Clear,330,2006-01-27 00:03:00
7:23 PM,42.8,21.2,42,30.46,10.0,NNW,6.9,-,N/A,,Clear,340,2006-01-27 00:23:00
7:43 PM,42.8,21.2,42,30.46,10.0,North,8.1,-,N/A,,Clear,350,2006-01-27 00:43:00
8:04 PM,42.8,21.2,42,30.46,10.0,North,9.2,-,N/A,,Clear,360,2006-01-27 01:04:00
8:23 PM,41.0,21.2,45,30.47,10.0,NNE,5.8,-,N/A,,Clear,20,2006-01-27 01:23:00
8:43 PM,41.0,21.2,45,30.48,10.0,North,4.6,-,N/A,,Clear,10,2006-01-27 01:43:00
9:03 PM,37.4,21.2,52,30.49,10.0,NNE,5.8,-,N/A,,Clear,30,2006-01-27 02:03:00
9:23 PM,37.4,21.2,52,30.49,10.0,Calm,Calm,-,N/A,,Clear,0,2006-01-27 02:23:00
10:23 PM,37.4,19.4,48,30.51,10.0,ENE,3.5,-,N/A,,Clear,60,2006-01-27 03:23:00
10:44 PM,37.4,19.4,48,30.52,10.0,Calm,Calm,-,N/A,,Clear,0,2006-01-27 03:44:00
11:03 PM,35.6,19.4,52,30.52,10.0,Calm,Calm,-,N/A,,Clear,0,2006-01-27 04:03:00
11:24 PM,35.6,19.4,52,30.52,10.0,NNE,4.6,-,N/A,,Clear,20,2006-01-27 04:24:00